| time (UTC) | temp F | wind direction | speed knots | gust knots | rain 1hr in | rain 24hr in | rain mn in | humidity % | barometer mb |
| 20260507180501 | 62 | 117 | 0.0 | 4.3 | 0.00 | 0.01 | 0.01 | 36 | 1014.9 |
| 20260507180047 | 61 | 221 | 0.9 | 4.3 | 0.00 | 0.01 | 0.01 | 37 | 1015.0 |
| 20260507175517 | 61 | 314 | 0.0 | 2.6 | 0.00 | 0.01 | 0.01 | 34 | 1014.9 |
| 20260507175057 | 61 | 331 | 0.0 | 4.3 | 0.00 | 0.01 | 0.01 | 36 | 1015.0 |
| 20260507174553 | 61 | 70 | 0.9 | 4.3 | 0.00 | 0.01 | 0.01 | 35 | 1015.2 |
| 20260507174032 | 61 | 309 | 0.0 | 3.5 | 0.00 | 0.01 | 0.01 | 34 | 1015.2 |
| 20260507173515 | 61 | 114 | 0.9 | 3.5 | 0.00 | 0.01 | 0.01 | 37 | 1015.2 |
| 20260507173101 | 62 | 355 | 0.0 | 4.3 | 0.00 | 0.01 | 0.01 | 38 | 1015.3 |
| 20260507172548 | 62 | 166 | 0.0 | 5.2 | 0.00 | 0.01 | 0.01 | 36 | 1015.4 |
| 20260507172032 | 62 | 240 | 0.0 | 4.3 | 0.00 | 0.01 | 0.01 | 36 | 1015.6 |
| 20260507171517 | 62 | 334 | 0.0 | 5.2 | 0.00 | 0.01 | 0.01 | 40 | 1015.5 |
| 20260507171059 | 61 | 169 | 0.0 | 5.2 | 0.00 | 0.01 | 0.01 | 39 | 1015.6 |
| 20260507170549 | 61 | 335 | 0.0 | 1.7 | 0.00 | 0.01 | 0.01 | 38 | 1015.6 |
| 20260507170016 | 61 | 61 | 0.0 | 2.6 | 0.00 | 0.01 | 0.01 | 38 | 1015.6 |
| 20260507165501 | 61 | 340 | 0.0 | 2.6 | 0.00 | 0.01 | 0.01 | 38 | 1015.7 |
| 20260507165053 | 61 | 328 | 0.0 | 2.6 | 0.00 | 0.01 | 0.01 | 38 | 1015.7 |
| 20260507164541 | 61 | 318 | 0.0 | 2.6 | 0.00 | 0.01 | 0.01 | 36 | 1015.7 |
| 20260507164028 | 61 | 335 | 0.0 | 2.6 | 0.00 | 0.01 | 0.01 | 37 | 1015.8 |
| 20260507163509 | 61 | 263 | 0.0 | 3.5 | 0.00 | 0.01 | 0.01 | 40 | 1015.8 |
| 20260507163057 | 60 | 271 | 0.0 | 3.5 | 0.00 | 0.01 | 0.01 | 39 | 1015.8 |
| 20260507162547 | 60 | 325 | 0.0 | 5.2 | 0.00 | 0.01 | 0.01 | 38 | 1015.9 |
| 20260507162035 | 59 | 328 | 0.0 | 5.2 | 0.00 | 0.01 | 0.01 | 39 | 1016.0 |
| 20260507161531 | 59 | 103 | 0.0 | 2.6 | 0.00 | 0.01 | 0.01 | 41 | 1016.0 |
| 20260507161014 | 59 | 328 | 0.0 | 2.6 | 0.00 | 0.01 | 0.01 | 37 | 1016.0 |
| 20260507160554 | 59 | 302 | 0.9 | 2.6 | 0.00 | 0.01 | 0.01 | 36 | 1016.1 |
| 20260507160046 | 59 | 172 | 0.0 | 2.6 | 0.00 | 0.01 | 0.01 | 37 | 1016.1 |
| 20260507155509 | 59 | 65 | 0.9 | 3.5 | 0.00 | 0.01 | 0.01 | 36 | 1016.1 |
| 20260507155101 | 59 | 336 | 0.0 | 2.6 | 0.00 | 0.01 | 0.01 | 38 | 1016.0 |
| 20260507154552 | 58 | 312 | 0.0 | 2.6 | 0.00 | 0.01 | 0.01 | 37 | 1016.0 |
| 20260507154042 | 58 | 141 | 0.0 | 1.7 | 0.00 | 0.01 | 0.01 | 37 | 1016.0 |
| 20260507153527 | 58 | 323 | 0.9 | 1.7 | 0.00 | 0.01 | 0.01 | 41 | 1016.0 |
| 20260507153009 | 58 | 325 | 0.0 | 5.2 | 0.00 | 0.01 | 0.01 | 39 | 1016.0 |
| 20260507152559 | 58 | 345 | 0.0 | 2.6 | 0.00 | 0.01 | 0.01 | 41 | 1015.9 |
| 20260507152047 | 57 | 141 | 0.9 | 2.6 | 0.00 | 0.01 | 0.01 | 44 | 1015.9 |
| 20260507151536 | 57 | 49 | 0.0 | 3.5 | 0.00 | 0.01 | 0.01 | 43 | 1015.9 |
| 20260507151015 | 57 | 316 | 0.0 | 4.3 | 0.00 | 0.01 | 0.01 | 43 | 1016.0 |
| 20260507150507 | 57 | 324 | 0.9 | 4.3 | 0.00 | 0.01 | 0.01 | 40 | 1015.9 |
| 20260507150108 | 57 | 332 | 0.0 | 5.2 | 0.00 | 0.01 | 0.01 | 42 | 1015.8 |
| 20260507145533 | 57 | 319 | 1.7 | 5.2 | 0.00 | 0.01 | 0.01 | 40 | 1015.8 |
| 20260507145018 | 57 | 332 | 0.0 | 4.3 | 0.00 | 0.01 | 0.01 | 42 | 1015.8 |
| 20260507144501 | 58 | 82 | 0.0 | 2.6 | 0.00 | 0.01 | 0.01 | 39 | 1015.8 |
| 20260507144053 | 57 | 20 | 0.0 | 2.6 | 0.00 | 0.01 | 0.01 | 43 | 1015.7 |
| 20260507143542 | 57 | 120 | 0.0 | 2.6 | 0.00 | 0.01 | 0.01 | 42 | 1015.8 |
| 20260507143029 | 57 | 75 | 0.0 | 2.6 | 0.00 | 0.01 | 0.01 | 41 | 1015.8 |
| 20260507142504 | 56 | 129 | 0.0 | 1.7 | 0.00 | 0.01 | 0.01 | 44 | 1015.8 |
| 20260507142055 | 56 | 339 | 0.9 | 5.2 | 0.00 | 0.01 | 0.01 | 48 | 1015.9 |
| 20260507141543 | 56 | 165 | 0.0 | 5.2 | 0.00 | 0.01 | 0.01 | 41 | 1016.0 |
| 20260507141036 | 55 | 153 | 0.0 | 1.7 | 0.00 | 0.01 | 0.01 | 46 | 1016.0 |
| 20260507140526 | 55 | 359 | 0.0 | 1.7 | 0.00 | 0.01 | 0.01 | 47 | 1016.1 |
| 20260507140106 | 54 | 294 | 0.0 | 3.5 | 0.00 | 0.01 | 0.01 | 47 | 1016.1 |
| 20260507135538 | 54 | 81 | 0.0 | 3.5 | 0.00 | 0.01 | 0.01 | 56 | 1016.0 |
| 20260507135019 | 54 | 205 | 0.0 | 0.9 | 0.00 | 0.01 | 0.01 | 51 | 1016.0 |
| 20260507134506 | 53 | 98 | 0.0 | 1.7 | 0.00 | 0.01 | 0.01 | 54 | 1015.9 |
| 20260507134055 | 53 | 90 | 0.0 | 3.5 | 0.00 | 0.01 | 0.01 | 50 | 1015.9 |
| 20260507133543 | 52 | 106 | 0.0 | 3.5 | 0.00 | 0.01 | 0.01 | 55 | 1015.9 |
| 20260507133034 | 52 | 82 | 0.0 | 2.6 | 0.00 | 0.01 | 0.01 | 58 | 1016.0 |
| 20260507132523 | 52 | 12 | 0.0 | 3.5 | 0.00 | 0.01 | 0.01 | 56 | 1015.9 |
| 20260507132056 | 52 | 86 | 0.0 | 3.5 | 0.00 | 0.01 | 0.01 | 60 | 1015.9 |
| 20260507131545 | 51 | 56 | 0.0 | 3.5 | 0.00 | 0.01 | 0.01 | 60 | 1016.0 |
| 20260507131033 | 50 | 90 | 0.9 | 3.5 | 0.00 | 0.01 | 0.01 | 59 | 1016.0 |
| 20260507130519 | 51 | 346 | 0.0 | 2.6 | 0.00 | 0.01 | 0.01 | 68 | 1016.0 |
| 20260507130110 | 50 | 27 | 0.0 | 2.6 | 0.00 | 0.01 | 0.01 | 72 | 1015.9 |
| 20260507125532 | 50 | 327 | 0.0 | 2.6 | 0.00 | 0.01 | 0.01 | 72 | 1016.0 |
| 20260507125011 | 49 | 75 | 0.0 | 0.0 | 0.00 | 0.01 | 0.01 | 76 | 1015.9 |
| 20260507124620 | 48 | 43 | 0.0 | 0.9 | 0.00 | 0.01 | 0.01 | 79 | 1016.0 |
| 20260507124046 | 47 | 43 | 0.0 | 2.6 | 0.00 | 0.01 | 0.01 | 82 | 1016.0 |
| 20260507123531 | 46 | 126 | 0.0 | 2.6 | 0.00 | 0.01 | 0.01 | 83 | 1016.0 |
| 20260507123016 | 45 | 163 | 0.0 | 0.9 | 0.00 | 0.01 | 0.01 | 85 | 1016.1 |
| 20260507122502 | 44 | 207 | 0.0 | 0.9 | 0.00 | 0.01 | 0.01 | 85 | 1016.0 |
| 20260507122053 | 44 | 257 | 0.0 | 0.9 | 0.00 | 0.01 | 0.01 | 85 | 1016.1 |
| 20260507121550 | 44 | 256 | 0.0 | 0.9 | 0.01 | 0.01 | 0.01 | 85 | 1016.2 |
| 20260507121032 | 43 | 257 | 0.0 | 0.0 | 0.01 | 0.01 | 0.01 | 85 | 1016.1 |
| 20260507120509 | 42 | 257 | 0.0 | 0.0 | 0.01 | 0.01 | 0.01 | 85 | 1016.0 |
| 20260507115539 | 40 | 257 | 0.0 | 0.0 | 0.01 | 0.01 | 0.01 | 85 | 1016.1 |
| 20260507115029 | 39 | 257 | 0.0 | 0.0 | 0.01 | 0.01 | 0.01 | 85 | 1016.1 |
| 20260507114505 | 37 | 257 | 0.0 | 0.0 | 0.01 | 0.01 | 0.01 | 85 | 1016.0 |
| 20260507114053 | 36 | 257 | 0.0 | 0.0 | 0.01 | 0.01 | 0.01 | 85 | 1015.9 |
| 20260507113552 | 36 | 257 | 0.0 | 0.0 | 0.01 | 0.01 | 0.01 | 85 | 1016.0 |
| 20260507113031 | 35 | 257 | 0.0 | 0.0 | 0.01 | 0.01 | 0.01 | 85 | 1016.0 |
| 20260507112514 | 35 | 257 | 0.0 | 0.0 | 0.01 | 0.01 | 0.01 | 85 | 1016.1 |
| 20260507112004 | 35 | 257 | 0.0 | 0.0 | 0.01 | 0.01 | 0.01 | 85 | 1016.0 |
| 20260507111555 | 35 | 257 | 0.0 | 0.0 | 0.00 | 0.00 | 0.00 | 85 | 1016.0 |
| 20260507111043 | 34 | 257 | 0.0 | 0.0 | 0.00 | 0.00 | 0.00 | 85 | 1015.9 |
| 20260507110533 | 34 | 257 | 0.0 | 0.0 | 0.00 | 0.00 | 0.00 | 85 | 1015.8 |
| 20260507110002 | 34 | 257 | 0.0 | 0.0 | 0.00 | 0.00 | 0.00 | 85 | 1015.7 |
| 20260507105554 | 34 | 257 | 0.0 | 0.0 | 0.00 | 0.00 | 0.00 | 85 | 1015.7 |
| 20260507105041 | 34 | 257 | 0.0 | 0.0 | 0.00 | 0.00 | 0.00 | 85 | 1015.5 |
| 20260507104531 | 35 | 257 | 0.0 | 0.0 | 0.00 | 0.00 | 0.00 | 85 | 1015.5 |
| 20260507104028 | 35 | 257 | 0.0 | 0.0 | 0.00 | 0.00 | 0.00 | 85 | 1015.4 |
| 20260507103506 | 35 | 257 | 0.0 | 0.0 | 0.00 | 0.00 | 0.00 | 85 | 1015.4 |
| 20260507103100 | 35 | 257 | 0.0 | 0.0 | 0.00 | 0.00 | 0.00 | 85 | 1015.4 |
| 20260507102542 | 35 | 257 | 0.0 | 0.0 | 0.00 | 0.00 | 0.00 | 85 | 1015.3 |
| 20260507102032 | 35 | 257 | 0.0 | 0.0 | 0.00 | 0.00 | 0.00 | 85 | 1015.4 |
| 20260507101514 | 35 | 257 | 0.0 | 0.0 | 0.00 | 0.00 | 0.00 | 85 | 1015.4 |
| 20260507101019 | 35 | 257 | 0.0 | 0.0 | 0.00 | 0.00 | 0.00 | 85 | 1015.4 |
| 20260507100553 | 35 | 257 | 0.0 | 0.0 | 0.00 | 0.00 | 0.00 | 85 | 1015.4 |
| 20260507100056 | 35 | 257 | 0.0 | 0.0 | 0.00 | 0.00 | 0.00 | 85 | 1015.3 |
| 20260507095514 | 36 | 257 | 0.0 | 0.0 | 0.00 | 0.00 | 0.00 | 85 | 1015.4 |
| 20260507095101 | 36 | 257 | 0.0 | 0.0 | 0.00 | 0.00 | 0.00 | 85 | 1015.3 |
| 20260507094551 | 36 | 257 | 0.0 | 0.0 | 0.00 | 0.00 | 0.00 | 85 | 1015.4 |
| 20260507094038 | 36 | 257 | 0.0 | 0.0 | 0.00 | 0.00 | 0.00 | 85 | 1015.4 |
| 20260507093531 | 36 | 257 | 0.0 | 0.0 | 0.00 | 0.00 | 0.00 | 85 | 1015.4 |
| 20260507093009 | 36 | 257 | 0.0 | 0.0 | 0.00 | 0.00 | 0.00 | 85 | 1015.4 |
| 20260507092558 | 36 | 257 | 0.0 | 0.0 | 0.00 | 0.00 | 0.00 | 85 | 1015.2 |
| 20260507092050 | 36 | 257 | 0.0 | 0.0 | 0.00 | 0.00 | 0.00 | 84 | 1015.3 |
| 20260507091536 | 36 | 257 | 0.0 | 0.0 | 0.00 | 0.00 | 0.00 | 84 | 1015.2 |
| 20260507091029 | 36 | 257 | 0.0 | 0.0 | 0.00 | 0.00 | 0.00 | 84 | 1015.2 |
| 20260507090514 | 36 | 257 | 0.0 | 0.0 | 0.00 | 0.00 | 0.00 | 84 | 1015.1 |
| 20260507090055 | 36 | 257 | 0.0 | 0.0 | 0.00 | 0.00 | 0.00 | 84 | 1015.1 |
| 20260507085526 | 36 | 257 | 0.0 | 0.0 | 0.00 | 0.00 | 0.00 | 84 | 1015.1 |
| 20260507085008 | 36 | 257 | 0.0 | 0.0 | 0.00 | 0.00 | 0.00 | 84 | 1015.0 |
| 20260507084602 | 37 | 257 | 0.0 | 0.0 | 0.00 | 0.00 | 0.00 | 84 | 1015.0 |
| 20260507084049 | 37 | 257 | 0.0 | 0.0 | 0.00 | 0.00 | 0.00 | 84 | 1014.9 |
| 20260507083541 | 37 | 257 | 0.0 | 0.0 | 0.00 | 0.00 | 0.00 | 84 | 1015.0 |
| 20260507083031 | 37 | 257 | 0.0 | 0.0 | 0.00 | 0.00 | 0.00 | 84 | 1014.9 |
| 20260507082526 | 37 | 257 | 0.0 | 0.0 | 0.00 | 0.00 | 0.00 | 84 | 1014.9 |
| 20260507082001 | 37 | 257 | 0.0 | 0.0 | 0.00 | 0.00 | 0.00 | 84 | 1014.9 |
| 20260507081559 | 37 | 257 | 0.0 | 0.0 | 0.00 | 0.00 | 0.00 | 84 | 1014.9 |
| 20260507081034 | 37 | 257 | 0.0 | 0.0 | 0.00 | 0.00 | 0.00 | 84 | 1014.8 |
| 20260507080521 | 37 | 257 | 0.0 | 0.0 | 0.00 | 0.00 | 0.00 | 84 | 1014.8 |
| 20260507080103 | 38 | 257 | 0.0 | 0.0 | 0.00 | 0.00 | 0.00 | 84 | 1014.8 |
| 20260507075537 | 38 | 257 | 0.0 | 0.0 | 0.00 | 0.07 | 0.00 | 84 | 1014.8 |
| 20260507075028 | 38 | 257 | 0.0 | 0.0 | 0.00 | 0.07 | 0.00 | 84 | 1014.8 |
| 20260507074515 | 38 | 257 | 0.0 | 0.0 | 0.00 | 0.07 | 0.00 | 84 | 1014.8 |
| 20260507074055 | 38 | 257 | 0.0 | 0.0 | 0.00 | 0.07 | 0.00 | 84 | 1014.8 |
| 20260507073542 | 39 | 257 | 0.0 | 0.0 | 0.00 | 0.07 | 0.00 | 84 | 1014.8 |
| 20260507073043 | 39 | 257 | 0.0 | 0.0 | 0.00 | 0.07 | 0.00 | 84 | 1014.9 |
| 20260507072522 | 39 | 257 | 0.0 | 0.0 | 0.00 | 0.07 | 0.00 | 84 | 1014.8 |
| 20260507072007 | 39 | 257 | 0.0 | 0.0 | 0.00 | 0.07 | 0.00 | 84 | 1014.8 |
| 20260507071600 | 38 | 257 | 0.0 | 0.0 | 0.00 | 0.07 | 0.00 | 84 | 1014.7 |
| 20260507071045 | 38 | 257 | 0.0 | 0.0 | 0.00 | 0.07 | 0.00 | 84 | 1014.7 |
| 20260507070529 | 39 | 257 | 0.0 | 0.0 | 0.00 | 0.07 | 0.00 | 84 | 1014.7 |
| 20260507070112 | 38 | 257 | 0.0 | 0.0 | 0.00 | 0.07 | 0.00 | 84 | 1014.8 |
| 20260507065543 | 38 | 257 | 0.0 | 0.0 | 0.00 | 0.16 | 0.00 | 84 | 1014.8 |
| 20260507065033 | 39 | 257 | 0.0 | 0.0 | 0.00 | 0.16 | 0.00 | 84 | 1014.8 |
| 20260507064525 | 39 | 257 | 0.0 | 0.0 | 0.00 | 0.16 | 0.00 | 84 | 1014.8 |
| 20260507064058 | 39 | 257 | 0.0 | 0.0 | 0.00 | 0.16 | 0.00 | 84 | 1014.8 |
| 20260507063549 | 39 | 257 | 0.0 | 0.0 | 0.00 | 0.16 | 0.00 | 84 | 1015.0 |
| 20260507063034 | 39 | 257 | 0.0 | 0.0 | 0.00 | 0.16 | 0.00 | 84 | 1015.0 |
| 20260507062513 | 39 | 257 | 0.0 | 0.0 | 0.00 | 0.16 | 0.00 | 84 | 1015.0 |
| 20260507062004 | 39 | 257 | 0.0 | 0.0 | 0.00 | 0.16 | 0.00 | 84 | 1015.0 |
| 20260507061556 | 39 | 257 | 0.0 | 0.0 | 0.00 | 0.16 | 0.00 | 84 | 1015.0 |
| 20260507061043 | 39 | 257 | 0.0 | 0.0 | 0.00 | 0.16 | 0.00 | 84 | 1014.9 |
| 20260507060531 | 40 | 257 | 0.0 | 0.0 | 0.00 | 0.16 | 0.00 | 84 | 1014.9 |
| 20260507060007 | 40 | 257 | 0.0 | 0.0 | 0.00 | 0.34 | 0.00 | 84 | 1014.9 |
| 20260507055554 | 40 | 257 | 0.0 | 0.0 | 0.00 | 0.34 | 0.00 | 84 | 1014.9 |
| 20260507055043 | 40 | 257 | 0.0 | 0.0 | 0.00 | 0.34 | 0.00 | 84 | 1015.0 |
| 20260507054538 | 40 | 257 | 0.0 | 0.0 | 0.00 | 0.34 | 0.00 | 84 | 1015.0 |
| 20260507054018 | 41 | 257 | 0.0 | 0.0 | 0.00 | 0.34 | 0.00 | 84 | 1015.0 |
| 20260507053504 | 40 | 257 | 0.0 | 0.0 | 0.00 | 0.34 | 0.00 | 84 | 1015.0 |
| 20260507053057 | 40 | 257 | 0.0 | 0.0 | 0.00 | 0.34 | 0.00 | 84 | 1015.1 |
| 20260507052542 | 40 | 257 | 0.0 | 0.0 | 0.00 | 0.34 | 0.00 | 84 | 1015.0 |
| 20260507052030 | 40 | 257 | 0.0 | 0.0 | 0.00 | 0.34 | 0.00 | 84 | 1015.0 |
| 20260507051518 | 40 | 257 | 0.0 | 0.0 | 0.00 | 0.34 | 0.00 | 84 | 1014.8 |
| 20260507051104 | 40 | 257 | 0.0 | 0.0 | 0.00 | 0.34 | 0.00 | 84 | 1015.0 |
| 20260507050550 | 40 | 257 | 0.0 | 0.0 | 0.00 | 0.34 | 0.00 | 84 | 1014.9 |
| 20260507050012 | 40 | 257 | 0.0 | 0.0 | 0.00 | 0.51 | 0.00 | 84 | 1015.1 |
| 20260507045606 | 40 | 257 | 0.0 | 0.0 | 0.00 | 0.51 | 0.00 | 84 | 1015.1 |
| 20260507045047 | 40 | 257 | 0.0 | 0.0 | 0.00 | 0.51 | 0.00 | 84 | 1015.1 |
| 20260507044546 | 40 | 257 | 0.0 | 0.0 | 0.00 | 0.51 | 0.00 | 84 | 1015.2 |
| 20260507044029 | 40 | 257 | 0.0 | 0.0 | 0.00 | 0.51 | 0.00 | 84 | 1015.1 |
| 20260507043512 | 40 | 257 | 0.0 | 0.0 | 0.00 | 0.51 | 0.00 | 84 | 1015.1 |
| 20260507043101 | 41 | 257 | 0.0 | 0.0 | 0.00 | 0.51 | 0.00 | 84 | 1015.0 |
| 20260507042548 | 41 | 257 | 0.0 | 0.0 | 0.00 | 0.51 | 0.00 | 84 | 1015.0 |
| 20260507042037 | 41 | 257 | 0.0 | 0.0 | 0.00 | 0.51 | 0.00 | 84 | 1014.9 |
| 20260507041527 | 41 | 257 | 0.0 | 0.0 | 0.00 | 0.51 | 0.00 | 84 | 1015.0 |
| 20260507041103 | 41 | 257 | 0.0 | 0.0 | 0.00 | 0.51 | 0.00 | 84 | 1015.0 |
| 20260507040552 | 41 | 257 | 0.0 | 0.0 | 0.00 | 0.51 | 0.00 | 84 | 1015.0 |
| 20260507040041 | 41 | 257 | 0.0 | 0.0 | 0.00 | 0.51 | 0.00 | 84 | 1014.9 |
| 20260507035603 | 42 | 257 | 0.0 | 0.0 | 0.00 | 0.56 | 0.51 | 84 | 1014.9 |
| 20260507035053 | 41 | 257 | 0.0 | 0.0 | 0.00 | 0.56 | 0.51 | 84 | 1014.8 |
| 20260507034545 | 42 | 257 | 0.0 | 0.0 | 0.00 | 0.56 | 0.51 | 84 | 1014.8 |
| 20260507034031 | 42 | 257 | 0.0 | 0.0 | 0.00 | 0.56 | 0.51 | 84 | 1014.9 |
| 20260507033524 | 42 | 257 | 0.0 | 0.0 | 0.00 | 0.56 | 0.51 | 84 | 1014.9 |
| 20260507033004 | 42 | 257 | 0.0 | 0.0 | 0.00 | 0.56 | 0.51 | 84 | 1014.9 |
| 20260507032554 | 42 | 257 | 0.0 | 0.0 | 0.00 | 0.56 | 0.51 | 84 | 1014.9 |
| 20260507032050 | 42 | 257 | 0.0 | 0.0 | 0.00 | 0.56 | 0.51 | 83 | 1014.8 |
| 20260507031535 | 42 | 257 | 0.0 | 0.0 | 0.00 | 0.56 | 0.51 | 83 | 1014.9 |
| 20260507031030 | 42 | 257 | 0.0 | 0.0 | 0.00 | 0.56 | 0.51 | 83 | 1015.0 |
| 20260507030503 | 42 | 257 | 0.0 | 0.0 | 0.00 | 0.56 | 0.51 | 83 | 1015.0 |
| 20260507030054 | 43 | 257 | 0.0 | 0.0 | 0.00 | 0.56 | 0.51 | 83 | 1015.0 |
| 20260507025523 | 43 | 257 | 0.0 | 0.0 | 0.00 | 0.60 | 0.51 | 83 | 1015.0 |
| 20260507025005 | 43 | 257 | 0.0 | 0.0 | 0.00 | 0.60 | 0.51 | 83 | 1015.0 |
| 20260507024614 | 43 | 257 | 0.0 | 0.0 | 0.00 | 0.60 | 0.51 | 83 | 1014.9 |
| 20260507024045 | 43 | 257 | 0.0 | 0.0 | 0.00 | 0.60 | 0.51 | 83 | 1014.9 |
| 20260507023536 | 43 | 257 | 0.0 | 0.0 | 0.00 | 0.60 | 0.51 | 82 | 1014.8 |
| 20260507023100 | 44 | 257 | 0.0 | 0.0 | 0.00 | 0.60 | 0.51 | 82 | 1014.8 |
| 20260507022554 | 44 | 257 | 0.0 | 0.0 | 0.00 | 0.60 | 0.51 | 82 | 1014.8 |
| 20260507022039 | 44 | 257 | 0.0 | 0.0 | 0.00 | 0.60 | 0.51 | 82 | 1014.8 |
| 20260507021523 | 44 | 257 | 0.0 | 0.0 | 0.00 | 0.60 | 0.51 | 82 | 1014.8 |
| 20260507021003 | 44 | 257 | 0.0 | 0.0 | 0.00 | 0.60 | 0.51 | 81 | 1014.7 |
| 20260507020553 | 44 | 257 | 0.0 | 0.0 | 0.00 | 0.60 | 0.51 | 81 | 1014.6 |
| 20260507015513 | 45 | 257 | 0.0 | 0.0 | 0.00 | 0.70 | 0.51 | 81 | 1014.5 |
| 20260507015049 | 45 | 257 | 0.0 | 0.0 | 0.00 | 0.70 | 0.51 | 80 | 1014.5 |
| 20260507014545 | 45 | 257 | 0.0 | 0.0 | 0.00 | 0.70 | 0.51 | 80 | 1014.5 |
| 20260507014030 | 45 | 257 | 0.0 | 0.0 | 0.00 | 0.70 | 0.51 | 80 | 1014.4 |
| 20260507013518 | 46 | 257 | 0.0 | 0.0 | 0.00 | 0.70 | 0.51 | 79 | 1014.3 |
| 20260507013100 | 46 | 257 | 0.0 | 0.0 | 0.00 | 0.70 | 0.51 | 79 | 1014.3 |
| 20260507012547 | 46 | 257 | 0.0 | 0.0 | 0.00 | 0.70 | 0.51 | 79 | 1014.1 |
| 20260507012040 | 47 | 257 | 0.0 | 0.0 | 0.00 | 0.70 | 0.51 | 78 | 1014.2 |
| 20260507011526 | 47 | 257 | 0.0 | 0.0 | 0.00 | 0.70 | 0.51 | 78 | 1014.0 |
| 20260507011002 | 48 | 257 | 0.0 | 0.0 | 0.00 | 0.70 | 0.51 | 78 | 1014.0 |
| 20260507010551 | 48 | 257 | 0.0 | 0.0 | 0.00 | 0.70 | 0.51 | 77 | 1014.0 |
| 20260507010041 | 49 | 257 | 0.0 | 0.0 | 0.00 | 0.70 | 0.51 | 77 | 1014.1 |
| 20260507005519 | 49 | 257 | 0.0 | 0.0 | 0.00 | 0.78 | 0.51 | 77 | 1014.1 |
| 20260507005059 | 49 | 257 | 0.0 | 0.0 | 0.00 | 0.78 | 0.51 | 76 | 1014.0 |
| 20260507004546 | 50 | 257 | 0.0 | 0.0 | 0.00 | 0.78 | 0.51 | 76 | 1014.0 |
| 20260507004039 | 50 | 257 | 0.0 | 0.0 | 0.00 | 0.78 | 0.51 | 75 | 1013.9 |
| 20260507003526 | 50 | 257 | 0.0 | 0.0 | 0.00 | 0.78 | 0.51 | 74 | 1014.0 |
| 20260507003007 | 50 | 257 | 0.0 | 0.0 | 0.00 | 0.78 | 0.51 | 74 | 1013.9 |
| 20260507002555 | 51 | 257 | 0.0 | 0.0 | 0.00 | 0.78 | 0.51 | 72 | 1013.8 |
| 20260507002044 | 51 | 257 | 0.0 | 0.0 | 0.00 | 0.78 | 0.51 | 71 | 1013.6 |
| 20260507001529 | 51 | 257 | 0.0 | 0.0 | 0.00 | 0.78 | 0.51 | 69 | 1013.7 |
| 20260507001013 | 52 | 257 | 0.0 | 0.0 | 0.00 | 0.78 | 0.51 | 68 | 1013.7 |
| 20260507000503 | 52 | 257 | 0.0 | 0.9 | 0.00 | 0.78 | 0.51 | 66 | 1013.5 |
| 20260507000056 | 53 | 257 | 0.0 | 0.9 | 0.00 | 0.78 | 0.51 | 66 | 1013.6 |
| 20260506235534 | 53 | 155 | 0.0 | 0.0 | 0.00 | 0.81 | 0.51 | 67 | 1013.6 |
| 20260506235019 | 53 | 89 | 0.0 | 0.0 | 0.00 | 0.81 | 0.51 | 70 | 1013.5 |
| 20260506234501 | 53 | 89 | 0.0 | 0.0 | 0.00 | 0.81 | 0.51 | 65 | 1013.3 |
| 20260506234055 | 53 | 304 | 0.0 | 1.7 | 0.00 | 0.81 | 0.51 | 66 | 1013.3 |
| 20260506233540 | 54 | 128 | 0.0 | 1.7 | 0.00 | 0.81 | 0.51 | 64 | 1013.4 |
| 20260506233026 | 54 | 118 | 0.0 | 1.7 | 0.00 | 0.81 | 0.51 | 67 | 1013.4 |
| 20260506232507 | 54 | 122 | 0.0 | 0.9 | 0.00 | 0.81 | 0.51 | 63 | 1013.4 |
| 20260506232055 | 54 | 89 | 0.0 | 1.7 | 0.00 | 0.81 | 0.51 | 63 | 1013.3 |
| 20260506231556 | 55 | 348 | 0.0 | 1.7 | 0.00 | 0.81 | 0.51 | 62 | 1013.1 |
| 20260506231034 | 55 | 211 | 0.0 | 1.7 | 0.00 | 0.81 | 0.51 | 58 | 1013.0 |
| 20260506230517 | 56 | 17 | 0.0 | 1.7 | 0.00 | 0.81 | 0.51 | 60 | 1013.0 |
| 20260506230130 | 56 | 198 | 0.0 | 1.7 | 0.00 | 0.81 | 0.51 | 55 | 1013.1 |
| 20260506225539 | 57 | 32 | 0.0 | 6.1 | 0.00 | 0.81 | 0.51 | 58 | 1013.1 |
| 20260506225030 | 57 | 346 | 0.0 | 6.1 | 0.00 | 0.81 | 0.51 | 55 | 1013.2 |
| 20260506224512 | 57 | 133 | 0.0 | 0.9 | 0.00 | 0.81 | 0.51 | 55 | 1013.2 |
| 20260506224003 | 57 | 143 | 0.0 | 0.9 | 0.00 | 0.81 | 0.51 | 57 | 1013.1 |
| 20260506223553 | 57 | 142 | 0.0 | 0.0 | 0.00 | 0.81 | 0.51 | 54 | 1013.1 |
| 20260506223054 | 57 | 328 | 0.0 | 2.6 | 0.00 | 0.81 | 0.51 | 59 | 1013.3 |
| 20260506222536 | 57 | 327 | 0.0 | 2.6 | 0.00 | 0.81 | 0.51 | 60 | 1013.4 |
| 20260506222028 | 57 | 221 | 0.0 | 0.9 | 0.00 | 0.81 | 0.51 | 58 | 1013.3 |
| 20260506221506 | 57 | 81 | 0.0 | 0.9 | 0.00 | 0.81 | 0.51 | 64 | 1013.4 |
| 20260506221055 | 57 | 80 | 0.0 | 1.7 | 0.00 | 0.81 | 0.51 | 65 | 1013.5 |
| 20260506220542 | 58 | 342 | 0.0 | 1.7 | 0.00 | 0.81 | 0.51 | 60 | 1013.5 |
| 20260506220010 | 58 | 25 | 0.0 | 0.0 | 0.00 | 0.83 | 0.51 | 58 | 1013.6 |
| 20260506215559 | 58 | 25 | 0.0 | 0.0 | 0.00 | 0.83 | 0.51 | 60 | 1013.5 |
| 20260506215045 | 58 | 24 | 0.0 | 0.9 | 0.00 | 0.83 | 0.51 | 64 | 1013.6 |
| 20260506214535 | 58 | 102 | 0.0 | 0.9 | 0.00 | 0.83 | 0.51 | 58 | 1013.5 |
| 20260506214022 | 57 | 136 | 0.0 | 0.9 | 0.00 | 0.83 | 0.51 | 57 | 1013.5 |
| 20260506213504 | 57 | 235 | 0.0 | 0.9 | 0.00 | 0.83 | 0.51 | 53 | 1013.4 |
| 20260506213104 | 58 | 82 | 0.0 | 0.9 | 0.00 | 0.83 | 0.51 | 59 | 1013.4 |
| 20260506212542 | 58 | 72 | 0.0 | 1.7 | 0.00 | 0.83 | 0.51 | 55 | 1013.3 |
| 20260506212035 | 58 | 327 | 0.0 | 1.7 | 0.00 | 0.83 | 0.51 | 57 | 1013.3 |
| 20260506211524 | 58 | 330 | 0.0 | 2.6 | 0.00 | 0.83 | 0.51 | 57 | 1013.4 |
| 20260506211006 | 59 | 359 | 0.0 | 2.6 | 0.00 | 0.83 | 0.51 | 54 | 1013.2 |
| 20260506210554 | 59 | 356 | 0.0 | 1.7 | 0.00 | 0.83 | 0.51 | 50 | 1013.0 |
| 20260506210046 | 59 | 68 | 0.0 | 3.5 | 0.00 | 0.83 | 0.51 | 52 | 1013.0 |
| 20260506205519 | 59 | 68 | 0.0 | 3.5 | 0.00 | 0.88 | 0.51 | 51 | 1013.0 |
| 20260506205103 | 59 | 156 | 0.0 | 1.7 | 0.00 | 0.88 | 0.51 | 50 | 1013.0 |
| 20260506204554 | 59 | 138 | 0.0 | 1.7 | 0.00 | 0.88 | 0.51 | 51 | 1013.0 |
| 20260506204037 | 59 | 1 | 0.0 | 1.7 | 0.00 | 0.88 | 0.51 | 58 | 1013.1 |
| 20260506203523 | 59 | 316 | 0.0 | 1.7 | 0.00 | 0.88 | 0.51 | 58 | 1013.0 |
| 20260506203003 | 59 | 6 | 0.0 | 2.6 | 0.00 | 0.88 | 0.51 | 55 | 1013.0 |
| 20260506202559 | 59 | 101 | 0.0 | 2.6 | 0.00 | 0.88 | 0.51 | 51 | 1013.2 |
| 20260506202049 | 59 | 200 | 0.0 | 1.7 | 0.00 | 0.88 | 0.51 | 56 | 1013.2 |
| 20260506201545 | 59 | 330 | 0.0 | 0.0 | 0.00 | 0.88 | 0.51 | 58 | 1013.3 |
| 20260506201024 | 59 | 330 | 0.0 | 0.9 | 0.00 | 0.88 | 0.51 | 51 | 1013.2 |
| 20260506200504 | 59 | 330 | 0.0 | 0.9 | 0.00 | 0.88 | 0.51 | 54 | 1013.1 |
| 20260506200101 | 59 | 334 | 0.0 | 0.9 | 0.00 | 0.88 | 0.51 | 53 | 1013.2 |
| 20260506195532 | 58 | 88 | 0.0 | 0.9 | 0.00 | 1.04 | 0.51 | 52 | 1013.3 |
| 20260506195023 | 58 | 88 | 0.0 | 0.9 | 0.00 | 1.04 | 0.51 | 57 | 1013.2 |
| 20260506194501 | 58 | 110 | 0.0 | 2.6 | 0.00 | 1.04 | 0.51 | 55 | 1013.2 |
| 20260506194054 | 58 | 96 | 0.0 | 2.6 | 0.00 | 1.04 | 0.51 | 49 | 1013.2 |
| 20260506193535 | 59 | 77 | 0.0 | 2.6 | 0.00 | 1.04 | 0.51 | 54 | 1013.1 |
| 20260506193015 | 60 | 98 | 0.0 | 0.9 | 0.00 | 1.04 | 0.51 | 48 | 1013.0 |
| 20260506192503 | 60 | 314 | 0.0 | 2.6 | 0.00 | 1.04 | 0.51 | 47 | 1013.0 |
| 20260506192058 | 60 | 340 | 0.0 | 2.6 | 0.00 | 1.04 | 0.51 | 47 | 1012.7 |
| 20260506191548 | 61 | 335 | 0.0 | 3.5 | 0.00 | 1.04 | 0.51 | 45 | 1012.8 |
| 20260506191034 | 61 | 193 | 0.0 | 3.5 | 0.00 | 1.04 | 0.51 | 49 | 1012.7 |
| 20260506190529 | 61 | 208 | 0.0 | 2.6 | 0.00 | 1.04 | 0.51 | 55 | 1012.8 |
| 20260506190107 | 61 | 326 | 0.0 | 2.6 | 0.00 | 1.04 | 0.51 | 54 | 1012.8 |
| 20260506185544 | 61 | 141 | 0.0 | 3.5 | 0.00 | 1.04 | 0.51 | 45 | 1012.7 |
| 20260506185028 | 62 | 114 | 0.0 | 3.5 | 0.00 | 1.04 | 0.51 | 46 | 1012.6 |
| 20260506184512 | 63 | 101 | 0.0 | 1.7 | 0.00 | 1.04 | 0.51 | 50 | 1012.8 |
| 20260506184006 | 63 | 308 | 0.0 | 3.5 | 0.00 | 1.04 | 0.51 | 49 | 1012.6 |
| 20260506183554 | 63 | 226 | 0.0 | 3.5 | 0.00 | 1.04 | 0.51 | 50 | 1012.7 |
| 20260506183056 | 63 | 61 | 0.0 | 3.5 | 0.00 | 1.04 | 0.51 | 47 | 1012.5 |
| 20260506182528 | 63 | 113 | 0.9 | 3.5 | 0.00 | 1.04 | 0.51 | 44 | 1012.5 |
| 20260506182010 | 64 | 20 | 0.9 | 3.5 | 0.00 | 1.04 | 0.51 | 50 | 1012.6 |
| 20260506181558 | 63 | 91 | 0.0 | 3.5 | 0.00 | 1.04 | 0.51 | 50 | 1012.6 |
| 20260506181047 | 63 | 146 | 0.0 | 3.5 | 0.00 | 1.04 | 0.51 | 48 | 1012.5 |